Home   Weather   Haan   Past weeks

Flag for Germany Past Weather in Haan, North Rhine-Westphalia, Germany — Yesterday and Last 2 Weeks

Now
23 °F

Clear.


Feels Like: 23 °F
Forecast: 22 / 31 °F
Wind: 2 mph from South

Location: Duesseldorf

Current Time: Jan 22, 2017 at 7:22:28 am

Latest Report: Jan 22, 2017 at 6:50 am


Visibility: 10 mi

Pressure: 30.33 "Hg

Humidity: 74%

Dew Point: 16 °F

Location of HaanLocation

Past Weather in Haan — Graph

°F

Haan Temperature Yesterday

Maximum temperature yesterday: 43 °F (at 12:50 pm)
Minimum temperature yesterday: 21 °F (at 7:50 am)
Average temperature yesterday: 31 °F

High & Low Weather Summary for the Past Weeks

 TemperatureHumidityPressure
High46 °F (Jan 11, 2:20 pm)100% (Jan 7, 3:50 pm)30.72 "Hg (Jan 7, 3:50 pm)
Low18 °F (Jan 19, 6:20 am)39% (Jan 19, 2:50 pm)28.94 "Hg (Jan 13, 1:20 am)
Average33 °F83%30.20 "Hg
* Reported Jan 7 6:20 am — Jan 22 6:20 am, Haan, Weather by CustomWeather, © 2017

Note: Actual official high and low records may vary slightly from our data, if they occured in-between our weather recording intervals... More about our weather records

Advertising

Haan Weather History for the Previous 24 Hours

Scroll right to see more
 ConditionsComfort  
Time TempWeatherWind HumidityBarometerVisibility
6:20 am
Sun, Jan 22
25 °FClear.2 mph74%30.33 "Hg10 mi
5:50 am25 °FClear.6 mph74%30.33 "Hg10 mi
5:20 am27 °FClear.5 mph69%30.33 "Hg10 mi
4:50 am28 °FPassing clouds.6 mph64%30.33 "HgN/A
4:20 am27 °FClear.6 mph69%30.33 "Hg10 mi
3:50 am28 °FClear.8 mph64%30.33 "Hg10 mi
3:20 am27 °FClear.6 mph74%30.36 "Hg10 mi
2:50 am27 °FClear.7 mph74%30.36 "Hg10 mi
2:20 am28 °FClear.8 mph69%30.36 "Hg10 mi
1:50 am28 °FClear.8 mph69%30.36 "Hg10 mi
1:20 am30 °FClear.8 mph64%30.36 "Hg10 mi
12:50 am30 °FClear.7 mph64%30.36 "Hg10 mi
12:20 am30 °FClear.8 mph69%30.36 "Hg10 mi
11:50 pm
Sat, Jan 21
30 °FClear.7 mph69%30.36 "Hg10 mi
11:20 pm32 °FClear.10 mph64%30.36 "Hg10 mi
10:50 pm32 °FClear.10 mph64%30.36 "Hg10 mi
10:20 pm32 °FClear.8 mph64%30.36 "Hg10 mi
9:50 pm28 °FClear.6 mph74%30.36 "Hg10 mi
9:20 pm30 °FPassing clouds.3 mph69%30.36 "HgN/A
8:50 pm30 °FClear.5 mph69%30.36 "Hg10 mi
8:20 pm32 °FClear.6 mph64%30.36 "Hg10 mi
7:50 pm30 °FPassing clouds.3 mph75%30.36 "HgN/A
7:20 pm28 °FPassing clouds.6 mph80%30.36 "HgN/A
6:50 pm30 °FClear.3 mph75%30.36 "Hg10 mi
6:20 pm30 °FClear.3 mph75%30.36 "Hg10 mi
5:50 pm34 °FClear.3 mph65%30.36 "Hg10 mi
5:20 pm36 °FClear.5 mph56%30.36 "Hg10 mi
4:50 pm39 °FPassing clouds.3 mph52%30.36 "HgN/A
4:20 pm41 °FSunny.6 mph49%30.36 "Hg10 mi
3:50 pm43 °FSunny.6 mph49%30.36 "Hg10 mi
3:20 pm43 °FSunny.8 mph46%30.36 "Hg10 mi
2:50 pm43 °FPassing clouds.7 mph46%30.36 "HgN/A
2:20 pm43 °FPassing clouds.8 mph46%30.39 "HgN/A
1:50 pm43 °FPassing clouds.7 mph46%30.39 "HgN/A
1:20 pm43 °FPassing clouds.8 mph42%30.39 "HgN/A
12:50 pm43 °FPassing clouds.9 mph42%30.42 "HgN/A
12:20 pm41 °FPassing clouds.9 mph49%30.42 "HgN/A
11:50 am37 °FSunny.2 mph70%30.42 "Hg10 mi
11:20 am36 °FSunny.1 mph75%30.42 "Hg10 mi
10:50 am34 °FSunny.1 mph75%30.42 "Hg10 mi
10:20 am30 °FSunny.1 mph86%30.45 "Hg10 mi
9:50 am28 °FSunny.2 mph86%30.45 "Hg10 mi
9:20 am25 °FSunny.3 mph93%30.45 "Hg10 mi
8:50 am23 °FSunny.2 mph93%30.42 "Hg10 mi
8:20 am21 °FClear.1 mph93%30.42 "Hg10 mi
7:50 am21 °FClear.2 mph93%30.42 "Hg10 mi
7:20 am23 °FClear.2 mph93%30.42 "Hg10 mi
Weather by CustomWeather, © 2017

See weather overviewHow to use our weather pages